UAL581 KSFO-KPSP

Flight info

Callsign UAL581
Flight time 1h 4m
Altitude 37000
Route WESLA5 KAYEX LOSHN CLASN SIZLR4
Aircraft A319/M-SDE3FGHIRWY/LB1

Departure

Time 2026-05-09 06:45
Airport San Francisco International Airport (KSFO)

Arrival

Time 2026-05-09 07:49
Airport Palm Springs International Airport (KPSP)
Time Latitude Longitude Altitude Speed Heading
2026-05-09 06:19 37.61925 -122.38366 22 ft 0 kts 291°
2026-05-09 06:26 37.61924 -122.38366 31 ft 0 kts 291°
2026-05-09 06:36 37.61923 -122.38363 31 ft 3 kts 291°
2026-05-09 06:36 37.61913 -122.38332 22 ft 4 kts 296°
2026-05-09 06:36 37.61900 -122.38305 24 ft 4 kts 331°
2026-05-09 06:37 37.61887 -122.38301 23 ft 0 kts 27°
2026-05-09 06:39 37.61890 -122.38300 22 ft 2 kts 27°
2026-05-09 06:39 37.61910 -122.38286 22 ft 5 kts 27°
2026-05-09 06:39 37.61942 -122.38265 22 ft 5 kts 27°
2026-05-09 06:40 37.61968 -122.38227 23 ft 8 kts 78°
2026-05-09 06:40 37.61942 -122.38144 22 ft 13 kts 118°
2026-05-09 06:40 37.61896 -122.38036 22 ft 16 kts 118°
2026-05-09 06:40 37.61839 -122.37900 22 ft 19 kts 117°
2026-05-09 06:41 37.61789 -122.37736 22 ft 21 kts 111°
2026-05-09 06:41 37.61731 -122.37552 22 ft 24 kts 111°
2026-05-09 06:41 37.61654 -122.37357 22 ft 26 kts 118°
2026-05-09 06:41 37.61567 -122.37148 23 ft 28 kts 117°
2026-05-09 06:42 37.61490 -122.36964 22 ft 20 kts 120°
2026-05-09 06:42 37.61395 -122.36827 23 ft 22 kts 132°
2026-05-09 06:42 37.61312 -122.36652 22 ft 25 kts 117°
2026-05-09 06:42 37.61227 -122.36450 23 ft 27 kts 118°
2026-05-09 06:43 37.61135 -122.36232 22 ft 29 kts 118°
2026-05-09 06:43 37.61059 -122.36049 22 ft 15 kts 115°
2026-05-09 06:43 37.61079 -122.35923 24 ft 17 kts 39°
2026-05-09 06:43 37.61144 -122.35873 23 ft 10 kts 30°
2026-05-09 06:44 37.61199 -122.35904 22 ft 13 kts 298°
2026-05-09 06:44 37.61314 -122.36183 23 ft 66 kts 297°
2026-05-09 06:44 37.61625 -122.36923 24 ft 123 kts 298°
2026-05-09 06:44 37.62099 -122.38053 202 ft 157 kts 296°
2026-05-09 06:45 37.62614 -122.39277 961 ft 156 kts 297°
2026-05-09 06:45 37.63120 -122.40485 1752 ft 155 kts 299°
2026-05-09 06:45 37.63628 -122.41674 2421 ft 157 kts 301°
2026-05-09 06:45 37.64170 -122.42905 3031 ft 159 kts 301°
2026-05-09 06:46 37.64719 -122.44142 3477 ft 173 kts 301°
2026-05-09 06:46 37.65355 -122.45574 3785 ft 197 kts 300°
2026-05-09 06:46 37.66065 -122.47176 4120 ft 225 kts 300°
2026-05-09 06:46 37.66810 -122.49007 4709 ft 246 kts 291°
2026-05-09 06:47 37.66811 -122.51240 5280 ft 269 kts 251°
2026-05-09 06:47 37.65672 -122.53146 6106 ft 282 kts 216°
2026-05-09 06:47 37.63823 -122.53927 7049 ft 287 kts 181°
2026-05-09 06:47 37.61866 -122.53414 7941 ft 291 kts 159°
2026-05-09 06:48 37.60021 -122.52347 8916 ft 292 kts 155°
2026-05-09 06:48 37.58183 -122.51231 9849 ft 295 kts 155°
2026-05-09 06:48 37.56301 -122.50089 10449 ft 310 kts 155°
2026-05-09 06:48 37.54242 -122.48989 10717 ft 333 kts 162°
2026-05-09 06:49 37.51974 -122.48117 11112 ft 347 kts 165°
2026-05-09 06:49 37.49659 -122.47016 11767 ft 355 kts 154°
2026-05-09 06:49 37.47613 -122.45235 12466 ft 362 kts 138°
2026-05-09 06:49 37.45937 -122.42841 13175 ft 367 kts 130°
2026-05-09 06:50 37.44324 -122.40336 13877 ft 371 kts 130°
2026-05-09 06:50 37.42705 -122.37784 14457 ft 376 kts 130°
2026-05-09 06:50 37.41064 -122.35192 15038 ft 380 kts 130°
2026-05-09 06:50 37.39405 -122.32585 15655 ft 384 kts 130°
2026-05-09 06:51 37.37723 -122.29958 16246 ft 388 kts 130°
2026-05-09 06:51 37.36015 -122.27304 16833 ft 393 kts 130°
2026-05-09 06:51 37.34283 -122.24628 17434 ft 397 kts 130°
2026-05-09 06:51 37.32529 -122.21923 18042 ft 401 kts 130°
2026-05-09 06:52 37.30759 -122.19192 18611 ft 406 kts 130°
2026-05-09 06:52 37.28972 -122.16429 19114 ft 410 kts 130°
2026-05-09 06:52 37.27164 -122.13637 19638 ft 414 kts 130°
2026-05-09 06:52 37.25335 -122.10818 20169 ft 418 kts 130°
2026-05-09 06:53 37.23490 -122.07976 20690 ft 422 kts 130°
2026-05-09 06:53 37.21637 -122.05123 21211 ft 426 kts 130°
2026-05-09 06:53 37.19777 -122.02258 21727 ft 430 kts 130°
2026-05-09 06:53 37.17877 -121.99338 22214 ft 434 kts 130°
2026-05-09 06:54 37.15958 -121.96395 22694 ft 438 kts 130°
2026-05-09 06:54 37.14024 -121.93426 23204 ft 441 kts 130°
2026-05-09 06:54 37.12077 -121.90434 23687 ft 445 kts 130°
2026-05-09 06:54 37.10112 -121.87424 24087 ft 448 kts 130°
2026-05-09 06:55 37.08130 -121.84390 24472 ft 451 kts 130°
2026-05-09 06:55 37.06134 -121.81337 24867 ft 455 kts 130°
2026-05-09 06:55 37.04125 -121.78266 25274 ft 458 kts 130°
2026-05-09 06:55 37.02097 -121.75169 25653 ft 461 kts 130°
2026-05-09 06:56 37.00055 -121.72062 26038 ft 464 kts 130°
2026-05-09 06:56 36.98000 -121.68937 26438 ft 467 kts 130°
2026-05-09 06:56 36.95932 -121.65796 26820 ft 470 kts 130°
2026-05-09 06:56 36.93847 -121.62628 27189 ft 473 kts 130°
2026-05-09 06:57 36.91751 -121.59443 27542 ft 476 kts 130°
2026-05-09 06:57 36.89642 -121.56234 27888 ft 479 kts 130°
2026-05-09 06:57 36.87518 -121.53007 28249 ft 482 kts 130°
2026-05-09 06:57 36.85378 -121.49767 28625 ft 484 kts 130°
2026-05-09 06:58 36.83226 -121.46518 28987 ft 487 kts 130°
2026-05-09 06:58 36.81060 -121.43250 29330 ft 490 kts 130°
2026-05-09 06:58 36.78881 -121.39965 29661 ft 493 kts 130°
2026-05-09 06:58 36.76689 -121.36663 29987 ft 496 kts 130°
2026-05-09 06:59 36.74485 -121.33340 30283 ft 499 kts 130°
2026-05-09 06:59 36.72271 -121.30001 30548 ft 501 kts 130°
2026-05-09 06:59 36.70046 -121.26651 30844 ft 502 kts 130°
2026-05-09 06:59 36.67812 -121.23294 31148 ft 504 kts 130°
2026-05-09 07:00 36.65574 -121.19931 31518 ft 504 kts 130°
2026-05-09 07:00 36.63337 -121.16572 31877 ft 504 kts 131°
2026-05-09 07:00 36.61098 -121.13220 32259 ft 503 kts 131°
2026-05-09 07:00 36.58859 -121.09872 32638 ft 503 kts 131°
2026-05-09 07:01 36.56623 -121.06526 33018 ft 502 kts 130°
2026-05-09 07:01 36.54392 -121.03193 33477 ft 501 kts 130°
2026-05-09 07:01 36.52166 -120.99873 33890 ft 500 kts 130°
2026-05-09 07:01 36.49940 -120.96557 34281 ft 499 kts 131°
2026-05-09 07:02 36.47714 -120.93247 34639 ft 499 kts 131°
2026-05-09 07:02 36.45493 -120.89937 35013 ft 498 kts 131°
2026-05-09 07:02 36.43283 -120.86629 35378 ft 498 kts 130°
2026-05-09 07:02 36.41080 -120.83321 35729 ft 497 kts 130°
2026-05-09 07:03 36.38879 -120.80014 36084 ft 496 kts 130°
2026-05-09 07:03 36.36679 -120.76712 36432 ft 496 kts 130°
2026-05-09 07:03 36.34482 -120.73425 36764 ft 495 kts 131°
2026-05-09 07:03 36.32276 -120.70140 37032 ft 496 kts 131°
2026-05-09 07:04 36.27880 -120.63594 37085 ft 492 kts 130°
2026-05-09 07:04 36.23509 -120.57088 37079 ft 491 kts 131°
2026-05-09 07:05 36.19133 -120.50611 37069 ft 490 kts 131°
2026-05-09 07:05 36.14754 -120.44137 37071 ft 490 kts 131°
2026-05-09 07:06 36.10380 -120.37667 37066 ft 490 kts 130°
2026-05-09 07:06 36.06006 -120.31217 37078 ft 489 kts 130°
2026-05-09 07:07 36.01633 -120.24777 37067 ft 489 kts 130°
2026-05-09 07:07 35.97263 -120.18353 37062 ft 488 kts 130°
2026-05-09 07:08 35.92898 -120.11935 37057 ft 488 kts 130°
2026-05-09 07:08 35.88525 -120.05544 37055 ft 487 kts 130°
2026-05-09 07:09 35.84428 -119.98906 37053 ft 487 kts 119°
2026-05-09 07:09 35.81517 -119.91388 37049 ft 486 kts 114°
2026-05-09 07:10 35.78690 -119.83834 37046 ft 485 kts 114°
2026-05-09 07:10 35.75847 -119.76293 37041 ft 485 kts 114°
2026-05-09 07:11 35.73000 -119.68764 37031 ft 485 kts 114°
2026-05-09 07:11 35.70171 -119.61292 37027 ft 485 kts 114°
2026-05-09 07:12 35.67321 -119.53782 37046 ft 484 kts 115°
2026-05-09 07:12 35.63548 -119.46948 37034 ft 484 kts 133°
2026-05-09 07:13 35.59002 -119.40837 37031 ft 484 kts 132°
2026-05-09 07:13 35.54478 -119.34711 37018 ft 484 kts 132°
2026-05-09 07:14 35.49958 -119.28600 37032 ft 483 kts 132°
2026-05-09 07:14 35.45435 -119.22512 37034 ft 482 kts 132°
2026-05-09 07:15 35.40911 -119.16449 37021 ft 482 kts 132°
2026-05-09 07:15 35.36394 -119.10389 37018 ft 481 kts 132°
2026-05-09 07:16 35.31879 -119.04349 37037 ft 481 kts 132°
2026-05-09 07:16 35.27352 -118.98336 37031 ft 480 kts 132°
2026-05-09 07:17 35.22816 -118.92331 37040 ft 480 kts 132°
2026-05-09 07:17 35.18284 -118.86342 37045 ft 480 kts 132°
2026-05-09 07:18 35.13753 -118.80362 37079 ft 479 kts 132°
2026-05-09 07:18 35.09218 -118.74399 37106 ft 479 kts 132°
2026-05-09 07:19 35.04686 -118.68443 37113 ft 479 kts 131°
2026-05-09 07:19 35.00190 -118.62527 37100 ft 479 kts 131°
2026-05-09 07:20 34.97926 -118.59552 36842 ft 478 kts 132°
2026-05-09 07:20 34.95630 -118.56549 36580 ft 478 kts 132°
2026-05-09 07:20 34.93359 -118.53586 36278 ft 478 kts 132°
2026-05-09 07:20 34.91080 -118.50609 35396 ft 484 kts 132°
2026-05-09 07:21 34.88773 -118.47590 34521 ft 490 kts 131°
2026-05-09 07:21 34.86444 -118.44536 33476 ft 495 kts 131°
2026-05-09 07:21 34.84126 -118.41507 32373 ft 501 kts 131°
2026-05-09 07:21 34.81745 -118.38406 31304 ft 503 kts 132°
2026-05-09 07:22 34.79355 -118.35300 30193 ft 502 kts 132°
2026-05-09 07:22 34.77091 -118.32093 29175 ft 496 kts 126°
2026-05-09 07:22 34.75005 -118.28824 28686 ft 485 kts 127°
2026-05-09 07:22 34.72936 -118.25619 27990 ft 479 kts 127°
2026-05-09 07:23 34.70884 -118.22456 27319 ft 473 kts 127°
2026-05-09 07:23 34.69513 -118.20345 26867 ft 470 kts 127°
2026-05-09 07:23 34.66850 -118.16252 25990 ft 463 kts 128°
2026-05-09 07:23 34.65508 -118.14187 25546 ft 459 kts 128°
2026-05-09 07:24 34.63538 -118.11155 24932 ft 455 kts 128°
2026-05-09 07:24 34.61594 -118.08153 24289 ft 450 kts 128°
2026-05-09 07:24 34.59668 -118.05179 23662 ft 446 kts 128°
2026-05-09 07:24 34.57865 -118.02143 22968 ft 441 kts 121°
2026-05-09 07:25 34.56494 -117.98925 22599 ft 431 kts 116°
2026-05-09 07:25 34.55182 -117.95674 22201 ft 427 kts 116°
2026-05-09 07:25 34.53865 -117.92463 21800 ft 424 kts 116°
2026-05-09 07:25 34.52549 -117.89276 21410 ft 421 kts 116°
2026-05-09 07:26 34.51242 -117.86115 21011 ft 418 kts 116°
2026-05-09 07:26 34.49942 -117.82967 20618 ft 416 kts 116°
2026-05-09 07:26 34.48654 -117.79843 20225 ft 413 kts 116°
2026-05-09 07:26 34.47374 -117.76733 19842 ft 411 kts 116°
2026-05-09 07:27 34.46100 -117.73643 19464 ft 409 kts 116°
2026-05-09 07:27 34.44831 -117.70569 19072 ft 407 kts 116°
2026-05-09 07:27 34.43575 -117.67515 18781 ft 404 kts 116°
2026-05-09 07:27 34.42327 -117.64466 18533 ft 403 kts 116°
2026-05-09 07:28 34.41087 -117.61423 18407 ft 403 kts 116°
2026-05-09 07:28 34.39852 -117.58391 18145 ft 401 kts 116°
2026-05-09 07:28 34.38622 -117.55370 17888 ft 399 kts 116°
2026-05-09 07:28 34.37397 -117.52363 17639 ft 398 kts 116°
2026-05-09 07:29 34.36179 -117.49382 17387 ft 396 kts 116°
2026-05-09 07:29 34.34959 -117.46405 17145 ft 394 kts 116°
2026-05-09 07:29 34.33742 -117.43439 16902 ft 392 kts 116°
2026-05-09 07:29 34.32528 -117.40492 16658 ft 391 kts 117°
2026-05-09 07:30 34.31316 -117.37556 16418 ft 389 kts 117°
2026-05-09 07:30 34.30109 -117.34629 16199 ft 388 kts 117°
2026-05-09 07:30 34.28870 -117.31736 16135 ft 387 kts 118°
2026-05-09 07:30 34.27575 -117.28884 16156 ft 387 kts 120°
2026-05-09 07:31 34.26248 -117.26052 16159 ft 387 kts 120°
2026-05-09 07:31 34.24912 -117.23229 16159 ft 387 kts 120°
2026-05-09 07:31 34.23575 -117.20410 16162 ft 387 kts 120°
2026-05-09 07:31 34.22242 -117.17587 16117 ft 387 kts 120°
2026-05-09 07:32 34.20917 -117.14756 16119 ft 387 kts 120°
2026-05-09 07:32 34.19600 -117.11923 16118 ft 387 kts 119°
2026-05-09 07:32 34.18282 -117.09081 16110 ft 385 kts 119°
2026-05-09 07:32 34.17001 -117.06312 16113 ft 373 kts 120°
2026-05-09 07:33 34.15733 -117.03596 15928 ft 369 kts 120°
2026-05-09 07:33 34.13190 -116.98248 15578 ft 366 kts 120°
2026-05-09 07:33 34.11918 -116.95598 15415 ft 365 kts 120°
2026-05-09 07:34 34.10647 -116.92956 15251 ft 363 kts 120°
2026-05-09 07:34 34.09380 -116.90324 15092 ft 362 kts 120°
2026-05-09 07:34 34.08128 -116.87698 14884 ft 360 kts 120°
2026-05-09 07:34 34.06894 -116.85071 14659 ft 360 kts 119°
2026-05-09 07:35 34.05667 -116.82437 14454 ft 360 kts 119°
2026-05-09 07:35 34.04444 -116.79813 14250 ft 358 kts 119°
2026-05-09 07:35 34.03305 -116.77148 14042 ft 356 kts 112°
2026-05-09 07:35 34.02512 -116.74324 13629 ft 355 kts 107°
2026-05-09 07:36 34.01768 -116.71499 13234 ft 351 kts 108°
2026-05-09 07:36 34.01038 -116.68748 13093 ft 336 kts 108°
2026-05-09 07:36 34.00342 -116.66137 12771 ft 322 kts 108°
2026-05-09 07:36 33.99662 -116.63596 12292 ft 315 kts 108°
2026-05-09 07:37 33.98993 -116.61100 11823 ft 310 kts 108°
2026-05-09 07:37 33.98339 -116.58653 11507 ft 305 kts 108°
2026-05-09 07:37 33.97645 -116.56238 11201 ft 303 kts 115°
2026-05-09 07:37 33.96583 -116.54079 10879 ft 299 kts 128°
2026-05-09 07:38 33.95156 -116.52278 10519 ft 296 kts 137°
2026-05-09 07:38 33.93660 -116.50588 10115 ft 293 kts 136°
2026-05-09 07:38 33.92182 -116.48908 9732 ft 291 kts 136°
2026-05-09 07:38 33.90722 -116.47241 9346 ft 288 kts 136°
2026-05-09 07:39 33.89295 -116.45609 9204 ft 277 kts 136°
2026-05-09 07:39 33.87923 -116.44038 9051 ft 269 kts 136°
2026-05-09 07:39 33.86774 -116.42296 8923 ft 265 kts 120°
2026-05-09 07:39 33.85985 -116.40332 8721 ft 264 kts 115°
2026-05-09 07:40 33.85232 -116.38335 8512 ft 259 kts 115°
2026-05-09 07:40 33.84497 -116.36389 8347 ft 254 kts 115°
2026-05-09 07:40 33.83764 -116.34449 8027 ft 254 kts 115°
2026-05-09 07:40 33.83038 -116.32533 7805 ft 250 kts 115°
2026-05-09 07:41 33.82317 -116.30638 7582 ft 248 kts 115°
2026-05-09 07:41 33.81608 -116.28777 7386 ft 243 kts 115°
2026-05-09 07:41 33.80905 -116.26932 7116 ft 242 kts 115°
2026-05-09 07:41 33.80054 -116.25227 6896 ft 236 kts 132°
2026-05-09 07:42 33.78818 -116.24002 6580 ft 227 kts 152°
2026-05-09 07:42 33.77367 -116.23360 6235 ft 220 kts 170°
2026-05-09 07:42 33.75868 -116.23292 5869 ft 213 kts 188°
2026-05-09 07:42 33.74457 -116.23778 5430 ft 211 kts 206°
2026-05-09 07:43 33.73278 -116.24737 5213 ft 198 kts 222°
2026-05-09 07:43 33.72421 -116.25985 4985 ft 191 kts 238°
2026-05-09 07:43 33.71821 -116.27372 4767 ft 185 kts 247°
2026-05-09 07:43 33.71400 -116.28806 4587 ft 180 kts 256°
2026-05-09 07:44 33.71157 -116.30252 4394 ft 174 kts 264°
2026-05-09 07:44 33.71074 -116.31674 4199 ft 168 kts 272°
2026-05-09 07:44 33.71140 -116.33072 3967 ft 168 kts 279°
2026-05-09 07:44 33.71352 -116.34437 3739 ft 165 kts 287°
2026-05-09 07:45 33.71702 -116.35741 3515 ft 162 kts 292°
2026-05-09 07:45 33.72151 -116.36984 3302 ft 163 kts 295°
2026-05-09 07:45 33.72610 -116.38227 3082 ft 164 kts 294°
2026-05-09 07:45 33.73074 -116.39480 2860 ft 164 kts 294°
2026-05-09 07:46 33.73536 -116.40729 2661 ft 163 kts 293°
2026-05-09 07:46 33.73996 -116.41949 2448 ft 157 kts 296°
2026-05-09 07:46 33.74657 -116.42897 2294 ft 141 kts 319°
2026-05-09 07:46 33.75397 -116.43597 2127 ft 131 kts 317°
2026-05-09 07:47 33.76095 -116.44262 1945 ft 127 kts 321°
2026-05-09 07:47 33.76792 -116.44927 1829 ft 129 kts 320°
2026-05-09 07:47 33.77493 -116.45598 1668 ft 129 kts 321°
2026-05-09 07:47 33.78193 -116.46270 1482 ft 128 kts 321°
2026-05-09 07:48 33.78890 -116.46939 1327 ft 129 kts 320°
2026-05-09 07:48 33.79585 -116.47612 1093 ft 127 kts 320°
2026-05-09 07:48 33.80277 -116.48284 883 ft 128 kts 320°
2026-05-09 07:48 33.80969 -116.48962 697 ft 129 kts 321°
2026-05-09 07:49 33.81680 -116.49625 547 ft 129 kts 323°
2026-05-09 07:49 33.82395 -116.50254 415 ft 124 kts 324°
2026-05-09 07:49 33.82993 -116.50789 437 ft 83 kts 323°
2026-05-09 07:49 33.83314 -116.51076 451 ft 28 kts 323°
2026-05-09 07:50 33.83352 -116.51162 453 ft 11 kts 234°
2026-05-09 07:50 33.83282 -116.51227 452 ft 14 kts 200°
2026-05-09 07:50 33.83207 -116.51194 449 ft 14 kts 143°
2026-05-09 07:50 33.83118 -116.51116 439 ft 19 kts 143°
2026-05-09 07:51 33.82996 -116.51007 442 ft 24 kts 143°
2026-05-09 07:51 33.82863 -116.50880 424 ft 23 kts 137°
2026-05-09 07:51 33.82723 -116.50753 425 ft 28 kts 143°
2026-05-09 07:51 33.82575 -116.50622 425 ft 21 kts 143°
2026-05-09 07:52 33.82450 -116.50512 415 ft 21 kts 143°
2026-05-09 07:52 33.82347 -116.50419 412 ft 17 kts 143°
2026-05-09 07:52 33.82298 -116.50435 419 ft 7 kts 231°
2026-05-09 07:52 33.82276 -116.50471 421 ft 4 kts 234°
2026-05-09 07:53 33.82255 -116.50506 423 ft 7 kts 233°
2026-05-09 07:53 33.82210 -116.50565 420 ft 12 kts 207°
2026-05-09 07:53 33.82117 -116.50570 422 ft 15 kts 180°
2026-05-09 07:53 33.82005 -116.50571 428 ft 12 kts 179°
2026-05-09 07:54 33.81967 -116.50611 428 ft 8 kts 264°
2026-05-09 07:54 33.81977 -116.50684 419 ft 10 kts 302°
2026-05-09 07:54 33.82037 -116.50720 423 ft 8 kts 355°
2026-05-09 07:54 33.82077 -116.50720 424 ft 3 kts 359°
2026-05-09 07:55 33.82086 -116.50720 421 ft 0 kts 360°